Weather in Chemerivtsi

Ukraine / Khmelnitsky District     49°00′43″N   26°21′07″E
temp.,
°C
wind,
m/s
gust,
m/s
humid.,
%
clouds,
%
prec.,
mm/h
press.,
hPa
HPBL,
m
23 october, sat
sat2300:00+10wsw396681 0.0 1015186
03:00+10w4976100 0.3 1015346
06:00+9nw51171100 0.8 1016914
09:00+8wnw7126199 0.8 1019882
12:00+10wnw810515 0.0 10201263
15:00+12wnw79375 0.0 10201789
18:00+9nw610441 0.0 1021490
21:00+6wnw37596 0.0 1024187
24 october, sun
sun2400:00+5wnw411675 0.0 1025313
03:00+4wnw513755 0.0 1026444
06:00+5wnw61173100 0.0 1027828
09:00+4nw6128355 0.0 1029711
12:00+7nw795099 0.0 10301659
15:00+8nw7846100 0.0 10301743
18:00+7nnw5748100 0.0 1031909
21:00+6nnw355223 0.0 1032150
25 october, mon
mon2500:00+3nw226412 0.0 103420
03:00+2nw11715 0.0 103410
06:00+1s00751 0.0 103410
09:00+2ese22695 0.0 103473
12:00+8sse34485 0.0 1033692
15:00+10sse45382 0.0 1031864
18:00+7sse36470 0.0 1031114
21:00+5se411540 0.0 1031225
26 october, tue
tue2600:00+4se513554 0.0 1030310
03:00+4se614561 0.0 1029338
06:00+3se514610 0.0 1028335
09:00+3se615600 0.0 1028432
12:00+9sse812400 0.0 1026649
15:00+11sse79340 0.0 1024890
18:00+9sse4840100 0.0 1024150
21:00+7se41148100 0.0 1024311
27 october, wed
wed2700:00+6se3760100 0.0 1024177
03:00+5sse3469100 0.0 102487
06:00+4ssw1176100 0.0 102412
09:00+5nw2263100 0.0 102573
12:00+10nw344499 0.0 1025487
15:00+13nnw453710 0.0 10241097
18:00+9nw33510 0.0 102538
21:00+7nw34665 0.0 102749